This is the latest recevied weather packets stored in our database for station/object DL1NER. If no packets are shown the sender has not sent any weather packets the latest 10 day(s).
| Time | Temp. | Humidity | Pressure | Rain* | Wind** | Luminosity | Snow |
|---|---|---|---|---|---|---|---|
| 1777293612 | 18.33° C | 32% | 1021.5 hPa | 0 mm | - | 0 W/m² | - |
| 1777293012 | 18.33° C | 34% | 1021.6 hPa | 0 mm | - | 0 W/m² | - |
| 1777292412 | 18.33° C | 31% | 1021.8 hPa | 0 mm | - | 0 W/m² | - |
| 1777291812 | 18.33° C | 35% | 1021.9 hPa | 0 mm | - | 0 W/m² | - |
| 1777291212 | 18.33° C | 35% | 1022 hPa | 0 mm | - | 0 W/m² | - |
| 1777290612 | 17.78° C | 33% | 1022 hPa | 0 mm | - | 0 W/m² | - |
| 1777290012 | 17.78° C | 34% | 1022.2 hPa | 0 mm | - | 0 W/m² | - |
| 1777289412 | 17.78° C | 38% | 1022.4 hPa | 0 mm | - | 0 W/m² | - |
| 1777288812 | 17.22° C | 38% | 1022.5 hPa | 0 mm | - | 0 W/m² | - |
| 1777288212 | 17.78° C | 38% | 1022.6 hPa | 0 mm | - | 0 W/m² | - |
| 1777287612 | 17.22° C | 36% | 1022.6 hPa | 0 mm | - | 0 W/m² | - |
| 1777287012 | 16.67° C | 36% | 1022.7 hPa | 0 mm | - | 0 W/m² | - |
| 1777286412 | 16.67° C | 38% | 1022.8 hPa | 0 mm | - | 0 W/m² | - |
| 1777285811 | 16.67° C | 41% | 1022.9 hPa | 0 mm | - | 0 W/m² | - |
| 1777285212 | 16.67° C | 41% | 1022.9 hPa | 0 mm | - | 0 W/m² | - |
| 1777284612 | 16.11° C | 41% | 1023.1 hPa | 0 mm | - | 0 W/m² | - |
| 1777284011 | 16.11° C | 39% | 1023.2 hPa | 0 mm | - | 0 W/m² | - |
| 1777283411 | 15.56° C | 44% | 1023.4 hPa | 0 mm | - | 0 W/m² | - |
| 1777282811 | 15° C | 46% | 1023.5 hPa | 0 mm | - | 0 W/m² | - |
| 1777282211 | 15° C | 44% | 1023.5 hPa | 0 mm | - | 0 W/m² | - |
| 1777281612 | 14.44° C | 46% | 1023.7 hPa | 0 mm | - | 0 W/m² | - |
| 1777281011 | 14.44° C | 45% | 1023.8 hPa | 0 mm | - | 0 W/m² | - |
| 1777280411 | 13.89° C | 47% | 1023.9 hPa | 0 mm | - | 0 W/m² | - |
| 1777279811 | 13.89° C | 45% | 1023.9 hPa | 0 mm | - | 0 W/m² | - |
| 1777279211 | 13.33° C | 46% | 1024 hPa | 0 mm | - | 0 W/m² | - |
* Rain latest hour (hover to see other rain measurements)
** Current wind speed in m/s (hover to see current wind gust speed)